Time,TemperatureF,DewpointF,PressureIn,WindDirection,WindDirectionDegrees,WindSpeedMPH,WindSpeedGustMPH,Humidity,HourlyPrecipIn,Conditions,Clouds,dailyrainin,SoftwareType,DateUTC
2013-04-05 00:03:00,43.0,14.0,29.93,South,191,0.0,-999.0,30,-99.99,,,-99.99,,2013-04-05 04:03:00,
2013-04-05 00:13:00,43.0,14.0,29.93,South,191,0.0,-999.0,30,-99.99,,,-99.99,,2013-04-05 04:13:00,
2013-04-05 00:23:00,42.0,15.0,29.91,South,191,0.0,-999.0,33,-99.99,,,-99.99,,2013-04-05 04:23:00,
2013-04-05 00:33:00,41.0,14.0,29.91,South,191,0.0,-999.0,33,-99.99,,,-99.99,,2013-04-05 04:33:00,
2013-04-05 00:42:00,41.0,14.0,29.91,South,191,0.0,-999.0,33,-99.99,,,-99.99,,2013-04-05 04:42:00,
2013-04-05 00:52:00,42.0,15.0,29.91,South,191,0.0,-999.0,33,-99.99,,,-99.99,,2013-04-05 04:52:00,
2013-04-05 01:02:00,42.0,15.0,29.91,South,191,0.0,-999.0,33,-99.99,,,-99.99,,2013-04-05 05:02:00,
2013-04-05 01:22:00,41.0,14.0,29.91,South,191,0.0,-999.0,33,-99.99,,,-99.99,,2013-04-05 05:22:00,
2013-04-05 01:32:00,41.0,15.0,29.91,South,191,0.0,-999.0,34,-99.99,,,-99.99,,2013-04-05 05:32:00,
2013-04-05 01:42:00,41.0,15.0,29.91,South,191,0.0,-999.0,34,-99.99,,,-99.99,,2013-04-05 05:42:00,
2013-04-05 01:53:00,41.0,15.0,29.90,South,191,0.0,-999.0,34,-99.99,,,-99.99,,2013-04-05 05:53:00,
2013-04-05 02:02:00,40.0,15.0,29.90,South,191,0.0,-999.0,36,-99.99,,,-99.99,,2013-04-05 06:02:00,
2013-04-05 02:12:00,40.0,15.0,29.90,South,191,0.0,-999.0,36,-99.99,,,-99.99,,2013-04-05 06:12:00,
2013-04-05 02:22:00,39.0,15.0,29.90,South,191,0.0,-999.0,37,-99.99,,,-99.99,,2013-04-05 06:22:00,
2013-04-05 02:32:00,39.0,16.0,29.90,South,191,0.0,-999.0,38,-99.99,,,-99.99,,2013-04-05 06:32:00,
2013-04-05 02:42:00,39.0,16.0,29.90,South,191,0.0,-999.0,38,-99.99,,,-99.99,,2013-04-05 06:42:00,
2013-04-05 02:52:00,39.0,16.0,29.89,South,191,0.0,-999.0,38,-99.99,,,-99.99,,2013-04-05 06:52:00,
2013-04-05 03:02:00,38.0,15.0,29.89,South,191,0.0,-999.0,38,-99.99,,,-99.99,,2013-04-05 07:02:00,
2013-04-05 03:12:00,38.0,15.0,29.89,South,191,0.0,-999.0,38,-99.99,,,-99.99,,2013-04-05 07:12:00,
2013-04-05 03:22:00,38.0,15.0,29.88,South,191,0.0,-999.0,39,-99.99,,,-99.99,,2013-04-05 07:22:00,
2013-04-05 03:32:00,38.0,15.0,29.88,South,191,0.0,-999.0,39,-99.99,,,-99.99,,2013-04-05 07:32:00,
2013-04-05 03:42:00,38.0,15.0,29.88,South,191,0.0,-999.0,39,-99.99,,,-99.99,,2013-04-05 07:42:00,
2013-04-05 03:53:00,37.0,16.0,29.87,South,191,0.0,-999.0,41,-99.99,,,-99.99,,2013-04-05 07:53:00,
2013-04-05 04:03:00,37.0,16.0,29.87,South,191,0.0,-999.0,42,-99.99,,,-99.99,,2013-04-05 08:03:00,
2013-04-05 04:13:00,37.0,16.0,29.87,South,191,0.0,-999.0,42,-99.99,,,-99.99,,2013-04-05 08:13:00,
2013-04-05 04:22:00,37.0,17.0,29.87,South,191,0.0,-999.0,43,-99.99,,,-99.99,,2013-04-05 08:22:00,
2013-04-05 04:32:00,37.0,17.0,29.87,South,191,0.0,-999.0,44,-99.99,,,-99.99,,2013-04-05 08:32:00,
2013-04-05 04:43:00,37.0,17.0,29.87,South,191,0.0,-999.0,44,-99.99,,,-99.99,,2013-04-05 08:43:00,
2013-04-05 04:52:00,36.0,17.0,29.87,South,191,0.0,-999.0,45,-99.99,,,-99.99,,2013-04-05 08:52:00,
2013-04-05 05:02:00,36.0,17.0,29.87,South,191,0.0,-999.0,46,-99.99,,,-99.99,,2013-04-05 09:02:00,
2013-04-05 05:12:00,36.0,17.0,29.87,South,191,0.0,-999.0,46,-99.99,,,-99.99,,2013-04-05 09:12:00,
2013-04-05 05:22:00,36.0,18.0,29.87,South,191,0.0,-999.0,47,-99.99,,,-99.99,,2013-04-05 09:22:00,
2013-04-05 05:33:00,36.0,18.0,29.87,South,191,0.0,-999.0,47,-99.99,,,-99.99,,2013-04-05 09:33:00,
2013-04-05 05:43:00,36.0,18.0,29.87,South,191,0.0,-999.0,47,-99.99,,,-99.99,,2013-04-05 09:43:00,
2013-04-05 05:53:00,36.0,18.0,29.88,South,191,0.0,-999.0,48,-99.99,,,-99.99,,2013-04-05 09:53:00,
2013-04-05 06:03:00,36.0,18.0,29.88,South,191,0.0,-999.0,48,-99.99,,,-99.99,,2013-04-05 10:03:00,
2013-04-05 06:13:00,36.0,18.0,29.88,South,191,0.0,-999.0,48,-99.99,,,-99.99,,2013-04-05 10:13:00,
2013-04-05 06:23:00,36.0,19.0,29.88,South,191,0.0,-999.0,49,-99.99,,,-99.99,,2013-04-05 10:23:00,
2013-04-05 06:33:00,35.0,18.0,29.88,SSW,193,0.0,-999.0,49,-99.99,,,-99.99,,2013-04-05 10:33:00,
2013-04-05 06:43:00,35.0,18.0,29.88,SSW,193,0.0,-999.0,49,-99.99,,,-99.99,,2013-04-05 10:43:00,
2013-04-05 06:53:00,35.0,18.0,29.89,SSW,193,0.0,0.0,49,0.00,,,0.00,,2013-04-05 10:53:00,
2013-04-05 07:03:00,35.0,18.0,29.89,SSW,194,0.0,1.0,50,0.00,,,0.00,,2013-04-05 11:03:00,
2013-04-05 07:13:00,35.0,18.0,29.89,SSW,194,0.0,1.0,50,0.00,,,0.00,,2013-04-05 11:13:00,
2013-04-05 07:22:00,34.0,18.0,29.90,SSW,194,0.0,0.0,52,0.00,,,0.00,,2013-04-05 11:22:00,
2013-04-05 07:33:00,34.0,19.0,29.90,SSW,194,0.0,1.0,53,0.00,,,0.00,,2013-04-05 11:33:00,
2013-04-05 07:42:00,34.0,19.0,29.90,SSW,194,0.0,1.0,53,0.00,,,0.00,,2013-04-05 11:42:00,
2013-04-05 07:52:00,35.0,19.0,29.91,SSW,194,0.0,1.0,52,0.00,,,0.00,,2013-04-05 11:52:00,
2013-04-05 08:02:00,35.0,19.0,29.91,SSW,194,0.0,1.0,52,0.00,,,0.00,,2013-04-05 12:02:00,
2013-04-05 08:12:00,35.0,19.0,29.91,SSW,194,0.0,1.0,52,0.00,,,0.00,,2013-04-05 12:12:00,
2013-04-05 08:22:00,35.0,20.0,29.92,SSW,194,0.0,2.0,54,0.00,,,0.00,,2013-04-05 12:22:00,
2013-04-05 08:32:00,36.0,21.0,29.92,SSW,194,0.0,3.0,54,0.00,,,0.00,,2013-04-05 12:32:00,
2013-04-05 08:42:00,36.0,21.0,29.92,SSW,194,0.0,3.0,54,0.00,,,0.00,,2013-04-05 12:42:00,
2013-04-05 08:52:00,37.0,21.0,29.92,SW,222,1.0,3.0,53,0.00,,,0.00,,2013-04-05 12:52:00,
2013-04-05 09:02:00,37.0,20.0,29.92,West,262,0.0,4.0,49,0.00,,,0.00,,2013-04-05 13:02:00,
2013-04-05 09:12:00,37.0,20.0,29.92,West,262,0.0,4.0,49,0.00,,,0.00,,2013-04-05 13:12:00,
2013-04-05 09:23:00,38.0,21.0,29.92,West,273,1.0,3.0,50,0.00,,,0.00,,2013-04-05 13:23:00,
2013-04-05 09:32:00,39.0,20.0,29.92,WNW,293,1.0,4.0,46,0.00,,,0.00,,2013-04-05 13:32:00,
2013-04-05 09:42:00,39.0,20.0,29.92,WNW,293,1.0,4.0,46,0.00,,,0.00,,2013-04-05 13:42:00,
2013-04-05 09:52:00,40.0,20.0,29.92,West,266,1.0,4.0,45,0.00,,,0.00,,2013-04-05 13:52:00,
2013-04-05 10:03:00,41.0,22.0,29.92,West,267,1.0,4.0,46,0.00,,,0.00,,2013-04-05 14:03:00,
2013-04-05 10:12:00,41.0,22.0,29.92,West,267,1.0,4.0,46,0.00,,,0.00,,2013-04-05 14:12:00,
2013-04-05 10:23:00,42.0,22.0,29.92,West,270,0.0,6.0,45,0.00,,,0.00,,2013-04-05 14:23:00,
2013-04-05 10:37:00,43.0,23.0,29.92,WNW,293,1.0,4.0,45,0.00,,,0.00,,2013-04-05 14:37:00,
2013-04-05 10:43:00,43.0,23.0,29.92,WNW,293,1.0,4.0,45,0.00,,,0.00,,2013-04-05 14:43:00,
2013-04-05 10:54:00,46.0,25.0,29.93,West,267,0.0,3.0,44,0.00,,,0.00,,2013-04-05 14:54:00,
2013-04-05 11:02:00,47.0,25.0,29.93,NNW,329,1.0,6.0,42,0.00,,,0.00,,2013-04-05 15:02:00,
2013-04-05 11:13:00,47.0,25.0,29.93,NNW,329,1.0,6.0,42,0.00,,,0.00,,2013-04-05 15:13:00,
2013-04-05 11:23:00,47.0,25.0,29.94,West,261,3.0,13.0,42,0.00,,,0.00,,2013-04-05 15:23:00,
2013-04-05 11:33:00,47.0,26.0,29.94,West,260,1.0,7.0,43,0.00,,,0.00,,2013-04-05 15:33:00,
2013-04-05 11:43:00,47.0,26.0,29.94,West,260,1.0,7.0,43,0.00,,,0.00,,2013-04-05 15:43:00,
2013-04-05 11:54:00,48.0,25.0,29.96,West,271,5.0,11.0,40,0.00,,,0.00,,2013-04-05 15:54:00,
2013-04-05 12:03:00,49.0,25.0,29.96,North,11,3.0,13.0,39,0.00,,,0.00,,2013-04-05 16:03:00,
2013-04-05 12:13:00,49.0,25.0,29.96,North,11,3.0,13.0,39,0.00,,,0.00,,2013-04-05 16:13:00,
2013-04-05 12:23:00,49.0,26.0,29.96,WSW,253,3.0,16.0,41,0.00,,,0.00,,2013-04-05 16:23:00,
2013-04-05 12:33:00,49.0,26.0,29.96,NNE,16,3.0,11.0,40,0.00,,,0.00,,2013-04-05 16:33:00,
2013-04-05 12:42:00,49.0,26.0,29.96,NNE,16,3.0,11.0,40,0.00,,,0.00,,2013-04-05 16:42:00,
2013-04-05 12:53:00,50.0,27.0,29.96,West,281,8.0,18.0,40,0.00,,,0.00,,2013-04-05 16:53:00,
2013-04-05 13:03:00,50.0,27.0,29.96,West,281,8.0,18.0,40,0.00,,,0.00,,2013-04-05 17:03:00,
2013-04-05 13:13:00,50.0,27.0,29.96,West,281,8.0,18.0,40,0.00,,,0.00,,2013-04-05 17:13:00,
2013-04-05 13:23:00,50.0,27.0,29.96,North,5,3.0,10.0,40,0.00,,,0.00,,2013-04-05 17:23:00,
2013-04-05 13:32:00,50.0,28.0,29.96,West,274,3.0,10.0,43,0.00,,,0.00,,2013-04-05 17:32:00,
2013-04-05 13:46:00,50.0,28.0,29.96,West,274,3.0,10.0,43,0.00,,,0.00,,2013-04-05 17:46:00,
2013-04-05 13:53:00,51.0,27.0,29.95,West,279,9.0,16.0,39,0.00,,,0.00,,2013-04-05 17:53:00,
2013-04-05 14:02:00,51.0,28.0,29.95,West,270,8.0,16.0,40,0.00,,,0.00,,2013-04-05 18:02:00,
2013-04-05 14:13:00,51.0,28.0,29.95,West,270,8.0,16.0,40,0.00,,,0.00,,2013-04-05 18:13:00,
2013-04-05 14:23:00,50.0,25.0,29.96,North,355,10.0,23.0,38,0.00,,,0.00,,2013-04-05 18:23:00,
2013-04-05 14:33:00,51.0,26.0,29.96,North,355,8.0,17.0,38,0.00,,,0.00,,2013-04-05 18:33:00,
2013-04-05 14:43:00,51.0,26.0,29.96,North,355,8.0,17.0,38,0.00,,,0.00,,2013-04-05 18:43:00,
2013-04-05 14:53:00,50.0,25.0,29.96,NE,56,6.0,19.0,38,0.00,,,0.00,,2013-04-05 18:53:00,
2013-04-05 15:02:00,51.0,23.0,29.96,WNW,286,5.0,18.0,33,0.00,,,0.00,,2013-04-05 19:02:00,
2013-04-05 15:13:00,51.0,23.0,29.96,WNW,286,5.0,18.0,33,0.00,,,0.00,,2013-04-05 19:13:00,
2013-04-05 15:23:00,51.0,24.0,29.95,West,281,10.0,19.0,35,0.00,,,0.00,,2013-04-05 19:23:00,
2013-04-05 15:33:00,51.0,24.0,29.95,West,281,10.0,19.0,35,0.00,,,0.00,,2013-04-05 19:33:00,
2013-04-05 15:42:00,51.0,24.0,29.95,West,281,10.0,19.0,35,0.00,,,0.00,,2013-04-05 19:42:00,
2013-04-05 15:53:00,51.0,24.0,29.95,West,281,10.0,19.0,35,0.00,,,0.00,,2013-04-05 19:53:00,
2013-04-05 16:22:00,50.0,23.0,29.95,NW,306,7.0,17.0,34,0.00,,,0.00,,2013-04-05 20:22:00,
2013-04-05 16:33:00,50.0,23.0,29.95,NW,306,7.0,17.0,34,0.00,,,0.00,,2013-04-05 20:33:00,
2013-04-05 16:42:00,50.0,23.0,29.95,NW,306,7.0,17.0,34,0.00,,,0.00,,2013-04-05 20:42:00,
2013-04-05 16:52:00,50.0,23.0,29.96,North,349,7.0,18.0,34,0.00,,,0.00,,2013-04-05 20:52:00,
2013-04-05 17:03:00,50.0,23.0,29.96,WNW,296,9.0,15.0,34,0.00,,,0.00,,2013-04-05 21:03:00,
2013-04-05 17:13:00,50.0,23.0,29.96,WNW,296,9.0,15.0,34,0.00,,,0.00,,2013-04-05 21:13:00,
2013-04-05 17:33:00,49.0,21.0,29.97,NW,315,6.0,17.0,33,0.00,,,0.00,,2013-04-05 21:33:00,
2013-04-05 17:43:00,49.0,21.0,29.97,NW,315,6.0,17.0,33,0.00,,,0.00,,2013-04-05 21:43:00,
2013-04-05 17:55:00,49.0,21.0,29.98,NNW,342,1.0,7.0,33,0.00,,,0.00,,2013-04-05 21:55:00,
2013-04-05 18:03:00,48.0,21.0,29.98,NNW,329,2.0,17.0,34,0.00,,,0.00,,2013-04-05 22:03:00,
2013-04-05 18:13:00,48.0,21.0,29.98,NNW,329,2.0,17.0,34,0.00,,,0.00,,2013-04-05 22:13:00,
2013-04-05 18:23:00,47.0,21.0,30.00,North,350,4.0,12.0,35,0.00,,,0.00,,2013-04-05 22:23:00,
2013-04-05 18:33:00,47.0,20.0,30.00,NNW,344,5.0,9.0,34,0.00,,,0.00,,2013-04-05 22:33:00,
2013-04-05 18:43:00,47.0,20.0,30.00,NNW,344,5.0,9.0,34,0.00,,,0.00,,2013-04-05 22:43:00,
2013-04-05 18:53:00,46.0,21.0,30.01,North,9,1.0,10.0,36,0.00,,,0.00,,2013-04-05 22:53:00,
2013-04-05 19:03:00,45.0,18.0,30.01,West,260,2.0,7.0,34,0.00,,,0.00,,2013-04-05 23:03:00,
2013-04-05 19:12:00,45.0,18.0,30.01,West,260,2.0,7.0,34,0.00,,,0.00,,2013-04-05 23:12:00,
2013-04-05 19:23:00,44.0,18.0,30.03,WNW,286,3.0,16.0,35,0.00,,,0.00,,2013-04-05 23:23:00,
2013-04-05 19:32:00,44.0,19.0,30.03,NW,315,1.0,6.0,36,0.00,,,0.00,,2013-04-05 23:32:00,
2013-04-05 19:42:00,44.0,19.0,30.03,NW,315,1.0,6.0,36,0.00,,,0.00,,2013-04-05 23:42:00,
2013-04-05 19:53:00,42.0,19.0,30.05,NNW,344,0.0,7.0,39,0.00,,,0.00,,2013-04-05 23:53:00,
2013-04-05 20:02:00,41.0,19.0,30.05,West,262,0.0,5.0,41,0.00,,,0.00,,2013-04-06 00:02:00,
2013-04-05 20:13:00,41.0,19.0,30.05,West,262,0.0,5.0,41,0.00,,,0.00,,2013-04-06 00:13:00,
2013-04-05 20:23:00,40.0,20.0,30.06,West,275,1.0,5.0,44,0.00,,,0.00,,2013-04-06 00:23:00,
2013-04-05 20:33:00,39.0,19.0,30.06,WNW,284,0.0,3.0,44,0.00,,,0.00,,2013-04-06 00:33:00,
2013-04-05 20:42:00,39.0,19.0,30.06,WNW,284,0.0,3.0,44,0.00,,,0.00,,2013-04-06 00:42:00,
2013-04-05 20:52:00,38.0,19.0,30.08,NW,321,0.0,3.0,45,0.00,,,0.00,,2013-04-06 00:52:00,
2013-04-05 21:02:00,38.0,19.0,30.08,WNW,288,0.0,4.0,46,0.00,,,0.00,,2013-04-06 01:02:00,
2013-04-05 21:13:00,37.0,19.0,30.10,West,275,1.0,4.0,48,0.00,,,0.00,,2013-04-06 01:13:00,
2013-04-05 21:23:00,37.0,19.0,30.10,West,275,1.0,4.0,48,0.00,,,0.00,,2013-04-06 01:23:00,
2013-04-05 21:33:00,37.0,20.0,30.10,West,275,1.0,4.0,49,0.00,,,0.00,,2013-04-06 01:33:00,
2013-04-05 21:43:00,37.0,20.0,30.10,West,275,1.0,4.0,49,0.00,,,0.00,,2013-04-06 01:43:00,
2013-04-05 21:53:00,36.0,20.0,30.09,WSW,252,0.0,4.0,52,0.00,,,0.00,,2013-04-06 01:53:00,
2013-04-05 22:02:00,36.0,21.0,30.09,West,273,0.0,2.0,53,0.00,,,0.00,,2013-04-06 02:02:00,
2013-04-05 22:12:00,36.0,21.0,30.09,West,273,0.0,2.0,53,0.00,,,0.00,,2013-04-06 02:12:00,
2013-04-05 22:23:00,35.0,20.0,30.10,WNW,296,0.0,2.0,54,0.00,,,0.00,,2013-04-06 02:23:00,
2013-04-05 22:32:00,34.0,20.0,30.10,WNW,296,0.0,0.0,55,0.00,,,0.00,,2013-04-06 02:32:00,
2013-04-05 22:42:00,34.0,20.0,30.10,WNW,296,0.0,0.0,55,0.00,,,0.00,,2013-04-06 02:42:00,
2013-04-05 22:53:00,33.0,19.0,30.11,WNW,282,0.0,3.0,57,0.00,,,0.00,,2013-04-06 02:53:00,
2013-04-05 23:02:00,34.0,20.0,30.11,WNW,288,0.0,4.0,57,0.00,,,0.00,,2013-04-06 03:02:00,
2013-04-05 23:13:00,34.0,20.0,30.11,WNW,288,0.0,4.0,57,0.00,,,0.00,,2013-04-06 03:13:00,
2013-04-05 23:22:00,33.0,20.0,30.11,WNW,294,0.0,1.0,59,0.00,,,0.00,,2013-04-06 03:22:00,
2013-04-05 23:34:00,32.0,19.0,30.11,WNW,294,0.0,1.0,59,0.00,,,0.00,,2013-04-06 03:34:00,
2013-04-05 23:43:00,32.0,19.0,30.11,WNW,294,0.0,1.0,59,0.00,,,0.00,,2013-04-06 03:43:00,
2013-04-05 23:54:00,31.0,20.0,30.12,WNW,294,0.0,2.0,62,0.00,,,0.00,,2013-04-06 03:54:00,